DW4394 Weather Reports


Display with metric or nautical units.
time (UTC)temp
F
wind
direction
speed
MPH
gust
MPH
rain 1hr
in
rain 24hr
in
rain mn
in
humidity
%
barometer
mb
20260506123056 59 171 3.0 7.0 0.00 0.00 0.00 40 1011.2
20260506121556 59 144 2.0 5.0 0.00 0.00 0.00 40 1011.1
20260506120100 60 157 3.0 7.0 0.00 0.00 0.00 40 1011.2
20260506114606 60 211 2.0 7.0 0.00 0.00 0.00 39 1011.0
20260506113057 60 159 3.0 6.0 0.00 0.00 0.00 38 1010.9
20260506111556 61 148 3.0 9.0 0.00 0.00 0.00 38 1010.8
20260506104557 61 183 5.0 9.0 0.00 0.00 0.00 38 1010.5
20260506103056 61 169 3.0 8.0 0.00 0.00 0.00 37 1010.5
20260506101605 61 200 4.0 10.0 0.00 0.00 0.00 37 1010.3
20260506100057 62 194 5.0 11.0 0.00 0.00 0.00 37 1010.1
20260506094621 62 136 4.0 9.0 0.00 0.00 0.00 37 1010.1
20260506093057 62 188 5.0 10.0 0.00 0.00 0.00 36 1010.0
20260506091555 62 161 3.0 10.0 0.00 0.00 0.00 36 1009.9
20260506090055 62 199 4.0 11.0 0.00 0.00 0.00 35 1009.8
20260506084556 63 170 4.0 10.0 0.00 0.00 0.00 34 1009.7
20260506083103 63 153 3.0 7.0 0.00 0.00 0.00 34 1009.6
20260506081556 63 146 5.0 9.0 0.00 0.00 0.00 33 1009.7
20260506073108 64 159 6.0 10.0 0.00 0.00 0.00 31 1009.9
20260506071600 64 172 5.0 11.0 0.00 0.00 0.00 28 1009.9
20260506070110 64 134 4.0 8.0 0.00 0.00 0.00 27 1009.9
20260506061601 64 156 3.0 5.0 0.00 0.00 0.00 28 1009.4
20260506060104 64 188 3.0 6.0 0.00 0.00 0.00 29 1009.2
20260506044559 66 196 4.0 9.0 0.00 0.00 0.00 28 1008.6
20260506043059 67 209 4.0 7.0 0.00 0.00 0.00 27 1008.5
20260506041559 67 178 3.0 7.0 0.00 0.00 0.00 27 1008.3
20260506040105 67 188 3.0 6.0 0.00 0.00 0.00 26 1008.0
20260506034614 68 174 3.0 8.0 0.00 0.00 0.00 26 1007.8
20260506033058 68 137 3.0 7.0 0.00 0.00 0.00 25 1007.6
20260506031606 69 177 4.0 10.0 0.00 0.00 0.00 25 1007.3
20260506024558 70 159 4.0 9.0 0.00 0.00 0.00 24 1006.8
20260506023059 70 204 4.0 11.0 0.00 0.00 0.00 24 1006.7
20260506021600 71 175 5.0 11.0 0.00 0.00 0.00 23 1006.5
20260506014600 73 219 3.0 8.0 0.00 0.00 0.00 21 1006.2
20260506013058 74 198 5.0 9.0 0.00 0.00 0.00 20 1006.1
20260506011607 75 217 4.0 10.0 0.00 0.00 0.00 18 1006.0
20260506010100 76 216 0.0 3.0 0.00 0.00 0.00 16 1006.0
20260506004600 76 26 1.0 4.0 0.00 0.00 0.00 16 1006.0
20260506003059 76 96 2.0 8.0 0.00 0.00 0.00 16 1005.9
20260506001558 78 129 0.0 4.0 0.00 0.00 0.00 15 1005.8
20260506000001 78 179 0.0 8.0 0.00 0.00 0.00 16 1005.7
20260505234605 76 189 1.0 5.0 0.00 0.00 0.00 16 1005.6
20260505233111 77 15 2.0 6.0 0.00 0.00 0.00 17 1005.6
20260505231605 77 103 4.0 11.0 0.00 0.00 0.00 17 1005.9
20260505230059 77 186 5.0 10.0 0.00 0.00 0.00 18 1006.0
20260505224558 77 185 4.0 7.0 0.00 0.00 0.00 19 1006.2
20260505223058 76 226 3.0 7.0 0.00 0.00 0.00 19 1006.4
20260505221559 77 190 6.0 10.0 0.00 0.00 0.00 18 1006.4
20260505220058 77 163 4.0 11.0 0.00 0.00 0.00 19 1006.6
20260505220001 77 163 4.0 11.0 0.00 0.00 0.00 20 1006.5
20260505214601 76 360 4.0 9.0 0.00 0.00 0.00 19 1006.8
20260505213100 78 13 3.0 8.0 0.00 0.00 0.00 20 1007.0
20260505211610 77 312 3.0 13.0 0.00 0.00 0.00 19 1007.1
20260505204602 77 175 1.0 8.0 0.00 0.00 0.00 20 1007.2
20260505203100 75 163 2.0 8.0 0.00 0.00 0.00 21 1007.3
20260505201601 75 206 2.0 10.0 0.00 0.00 0.00 21 1007.3
20260505194614 72 196 2.0 8.0 0.00 0.00 0.00 23 1007.7
20260505193059 72 265 2.0 11.0 0.00 0.00 0.00 24 1007.8
20260505191558 71 175 3.0 8.0 0.00 0.00 0.00 24 1007.9
20260505190057 71 186 5.0 10.0 0.00 0.00 0.00 25 1008.0
20260505184557 70 203 3.0 9.0 0.00 0.00 0.00 26 1008.0
20260505183058 70 254 4.0 8.0 0.00 0.00 0.00 27 1008.1
20260505181600 70 211 2.0 10.0 0.00 0.00 0.00 27 1008.1
20260505180059 70 142 5.0 12.0 0.00 0.00 0.00 26 1008.1
20260505174606 70 184 4.0 10.0 0.00 0.00 0.00 27 1008.0
20260505173059 69 181 4.0 9.0 0.00 0.00 0.00 29 1008.0
20260505171604 68 220 5.0 10.0 0.00 0.00 0.00 29 1008.1
20260505170057 67 228 4.0 9.0 0.00 0.00 0.00 30 1008.0
20260505164620 66 206 3.0 7.0 0.00 0.00 0.00 31 1008.0
20260505163105 65 197 3.0 9.0 0.00 0.00 0.00 33 1008.1
20260505161615 64 171 5.0 10.0 0.00 0.00 0.00 34 1008.1
20260505153101 62 135 6.0 12.0 0.00 0.00 0.00 39 1008.0
20260505151558 60 180 7.0 11.0 0.00 0.00 0.00 41 1008.0
20260505130112 54 124 6.0 10.0 0.00 0.00 0.00 49 1007.2
20260505124602 54 164 5.0 11.0 0.00 0.00 0.00 49 1007.1